Temp
9 9 9 9 10 9 9 9 10 10 10 10 10 10 10 10 10 10 10 10 10 10 10 10 10 10 11 13 14 14 14 14 15 12 14 21 25 25 25 25 24 23 23 23 23 22 22 22 23 23 23 24 24 24 24 23 23 22 23 23 22 23 24 25 26 26 26 25 24 24 25 25 24 24 25 26 25 25 25 25 25 25 25 25 24 23 23 22
9 9 9 9 9 9 9 9 10 10 10 10 10 10 10 10 10 10 10 10 10 10 10 11 10 10 11 13 13 13 14 13 13 13 19 25 26 25 25 24 24 23 23 22 23 23 23 23 23 23 24 24 24 24 24 23 23 22 23 23 23 24 24 24 25 26 26 25 24 25 25 25 25 25 25 25 24 25 24 24 24 24 24 24 23 23 23 23
9 9 9 9 9 9 9 9 9 10 10 10 10 10 10 10 9 9 10 10 9 9 10 11 11 11 11 12 12 14 13 13 16 20 24 27 26 26 25 24 24 23 23 23 23 24 24 23 23 24 24 24 24 24 23 23 23 23 23 24 25 25 24 24 24 25 26 26 25 25 25 25 25 26 26 25 25 25 25 24 24 24 23 23 23 24 23 23
9 9 9 9 9 10 9 9 9 9 9 10 10 10 10 10 9 9 9 9 9 9 9 10 11 11 11 11 13 14 13 16 23 26 25 26 27 26 25 24 23 23 23 24 24 24 24 24 24 24 24 25 24 24 24 24 23 23 24 25 25 24 24 24 24 25 26 26 25 25 25 25 25 26 25 25 25 25 25 25 25 24 24 23 23 24 24 23
9 9 10 10 11 11 10 10 9 9 9 9 10 9 9 9 9 9 9 9 9 9 9 10 11 11 11 12 13 13 14 22 26 25 24 25 26 26 25 24 23 23 23 24 24 24 24 24 24 25 25 25 24 24 25 24 24 24 24 25 24 24 24 24 24 25 25 26 25 25 25 25 26 26 25 26 26 26 26 26 25 25 24 24 24 24 24 24
10 11 12 13 13 13 12 11 10 10 10 10 9 9 9 9 9 9 9 9 9 9 9 9 10 10 12 13 14 13 18 25 25 24 25 25 26 25 24 24 23 23 23 23 24 24 24 24 25 24 25 25 24 25 25 25 25 24 25 24 24 24 24 24 24 24 25 26 25 25 25 26 26 25 25 26 26 26 26 26 25 25 25 25 24 24 24 24
11 13 14 15 15 15 13 12 11 11 11 11 10 10 9 9 10 9 9 9 9 10 10 9 9 10 12 14 14 15 19 23 24 24 26 25 25 25 24 24 23 23 23 24 24 24 24 24 25 25 25 25 25 25 25 25 25 24 25 24 23 24 24 24 24 24 25 25 25 25 25 26 26 25 25 25 25 26 26 25 25 25 25 25 24 24 24 24
12 13 14 15 15 15 14 13 12 12 12 13 12 11 10 10 10 10 10 9 10 10 9 9 9 10 12 14 16 18 20 22 24 24 25 26 24 23 23 22 22 23 23 24 25 25 25 24 25 25 25 25 25 25 25 25 25 24 25 25 24 24 24 24 24 25 25 25 25 25 25 25 25 26 25 25 25 26 25 25 25 25 25 25 24 24 25 25
13 13 14 14 15 15 15 14 13 13 13 14 13 12 12 12 12 12 12 11 11 10 9 9 10 10 12 13 16 21 23 23 23 23 24 25 24 23 23 22 22 23 23 24 24 25 25 25 25 26 26 26 26 26 26 25 25 25 25 25 24 23 23 23 24 24 24 25 25 25 24 24 25 26 25 25 26 25 25 25 25 25 24 24 24 24 25 25
14 14 14 14 15 15 15 15 14 14 14 15 14 13 13 14 14 14 14 13 12 10 9 9 10 11 12 13 18 22 24 23 22 22 22 25 24 22 22 22 23 23 24 23 24 25 25 25 26 26 26 26 26 26 26 26 26 26 25 25 24 23 23 23 23 24 24 25 25 25 24 24 25 26 25 25 26 25 25 25 24 25 24 24 24 24 25 25
15 15 15 15 15 15 16 15 15 14 15 15 15 15 15 15 15 15 15 14 13 11 9 9 10 11 12 14 20 23 23 23 23 22 22 24 24 23 22 23 23 24 24 24 24 25 25 26 26 26 26 26 26 27 26 26 27 26 25 25 23 22 23 24 23 24 24 24 25 25 24 25 25 26 26 25 26 26 25 25 24 25 25 25 24 24 25 25
15 15 16 16 15 16 16 16 16 15 15 16 16 16 16 16 16 16 15 15 14 11 10 10 10 11 12 15 20 22 23 23 23 22 21 22 23 23 23 23 23 24 24 24 24 25 25 26 26 26 26 26 27 27 26 27 27 25 26 25 23 22 23 23 23 24 25 24 25 26 25 24 26 25 25 25 26 26 25 25 25 25 25 25 25 24 25 25
16 16 16 16 16 16 16 16 16 16 16 17 17 17 17 17 17 17 16 15 13 11 10 10 11 11 13 18 22 23 23 23 23 22 21 22 22 23 23 22 23 24 25 25 25 25 25 25 26 26 26 26 27 26 26 25 25 24 25 25 23 22 23 22 22 24 24 23 25 26 23 24 25 25 25 26 26 26 25 25 25 25 25 25 25 25 25 25
16 16 17 17 17 17 17 17 17 17 17 17 17 17 18 18 18 17 17 15 12 10 10 11 11 12 15 20 23 23 23 23 22 22 22 22 22 22 22 22 23 23 25 25 25 25 25 25 26 27 26 26 27 26 25 24 24 24 24 24 23 22 22 22 22 24 24 23 24 25 23 23 25 25 25 26 26 26 25 25 25 25 25 25 25 25 25 25
17 16 17 17 17 17 17 17 17 17 17 17 17 18 18 18 17 17 16 13 11 11 11 11 12 13 16 21 22 22 22 22 22 23 23 23 23 22 21 22 23 24 24 24 25 25 25 25 26 26 26 26 27 26 24 24 24 24 23 22 23 23 22 22 22 23 24 23 24 25 23 24 25 25 25 26 26 26 25 25 25 25 25 25 25 25 25 25
17 17 17 17 18 18 18 18 17 17 17 17 18 17 17 17 16 16 15 12 11 11 11 13 12 13 18 21 22 23 23 23 23 23 23 23 24 23 21 22 23 24 24 24 24 25 25 26 26 26 26 26 27 26 24 23 23 24 24 22 23 23 22 23 22 21 23 23 23 24 24 24 25 25 25 26 26 26 26 25 25 25 25 25 25 25 25 25
17 17 17 17 18 18 18 18 18 18 18 18 18 17 17 16 15 14 12 11 11 11 12 13 12 13 19 23 23 23 23 23 23 23 22 23 24 23 22 22 23 24 25 24 24 25 25 26 26 26 26 26 27 26 23 22 21 23 24 23 23 24 23 22 22 21 23 24 24 24 25 24 25 25 25 25 26 26 26 25 25 25 25 25 25 25 25 25
17 17 17 18 18 19 19 19 18 18 18 18 17 17 16 16 14 13 12 11 11 12 13 13 13 16 21 24 24 23 24 23 23 23 22 23 23 23 23 23 23 24 24 25 25 25 25 25 26 26 26 26 26 26 23 22 23 23 23 23 23 24 24 23 22 22 22 24 24 24 25 24 25 25 25 25 25 25 26 26 25 25 25 25 25 25 26 25
18 18 18 18 19 19 19 19 18 18 18 18 17 16 16 15 14 13 12 12 14 17 18 17 17 21 22 23 23 23 24 23 23 23 22 22 23 23 23 23 23 24 24 25 25 25 25 25 25 25 25 26 26 27 26 26 26 25 24 24 23 23 24 24 23 22 23 24 24 24 25 24 24 25 25 25 25 25 26 26 26 25 25 25 25 26 26 26
18 18 18 18 19 19 19 19 19 18 18 18 17 16 17 17 18 17 14 13 17 20 22 21 20 21 22 22 23 24 24 24 23 23 22 23 23 23 24 23 24 24 25 25 25 25 26 25 25 25 26 27 27 27 27 27 27 27 26 24 24 23 23 24 23 21 22 24 24 24 25 25 24 25 25 25 25 25 25 25 25 25 25 25 25 26 26 26
18 18 18 19 19 19 20 19 19 18 18 18 17 18 20 20 21 21 19 18 19 19 20 21 20 21 22 22 22 23 24 24 24 23 23 23 24 24 23 23 24 24 24 25 25 25 25 24 25 26 27 27 26 27 27 27 27 27 26 24 24 24 23 24 23 21 22 23 23 24 25 25 25 24 24 25 25 25 26 25 25 25 25 25 25 26 26 26
18 19 19 19 19 19 20 19 19 18 18 18 17 18 21 21 21 22 21 21 21 19 18 19 19 20 21 21 22 23 24 25 24 23 23 24 24 24 23 24 25 24 24 25 25 25 24 24 26 27 25 25 26 26 27 28 27 27 26 25 23 23 24 23 23 22 22 23 23 23 24 24 24 24 24 25 25 26 26 26 25 25 25 25 26 26 26 26
18 19 19 19 19 20 20 19 19 18 18 18 17 18 21 22 21 21 21 21 21 20 19 19 20 21 21 22 22 22 24 25 24 23 24 24 24 24 24 24 25 25 24 25 25 24 23 24 27 26 24 25 26 26 27 28 27 28 27 24 23 24 24 22 22 22 22 23 23 23 23 23 23 24 23 24 25 26 26 26 26 26 26 26 26 26 26 26
19 19 19 20 19 20 20 19 19 19 19 18 18 20 22 22 21 21 21 21 21 21 21 21 21 22 23 23 23 23 24 25 25 25 25 25 25 24 25 25 25 25 25 26 26 25 25 25 25 25 24 26 27 26 28 28 26 27 27 26 24 24 24 23 23 23 23 23 24 23 22 22 23 23 23 23 24 25 25 26 26 26 26 26 26 26 27 27
19 19 20 20 19 20 20 19 19 19 19 18 20 22 22 22 22 21 21 21 21 22 23 22 21 23 24 24 23 24 25 25 25 26 25 26 26 25 25 25 25 25 24 25 25 26 26 25 24 25 25 26 27 27 28 28 26 25 27 27 26 26 25 24 23 23 22 22 23 23 21 21 22 23 24 23 23 25 25 25 26 26 26 26 26 26 27 27
19 19 20 20 20 20 19 19 20 20 20 20 22 23 22 22 22 21 21 21 21 23 24 23 23 24 25 24 23 24 25 25 25 25 25 27 27 26 25 25 25 25 23 25 26 25 26 24 25 26 26 26 27 27 27 28 26 24 26 28 27 27 25 23 24 23 21 21 23 23 21 21 22 22 24 24 24 25 25 25 26 26 26 26 26 26 27 27
19 19 20 20 20 20 20 21 21 20 22 23 23 23 23 23 22 22 22 21 21 22 24 24 24 25 25 24 24 24 24 25 25 25 26 27 26 26 26 25 26 25 24 25 24 24 25 24 25 26 26 26 26 26 27 28 26 24 26 28 27 27 25 24 24 23 23 23 23 23 22 21 21 22 24 24 24 24 25 25 26 26 26 26 26 27 27 27
19 19 20 20 21 20 20 21 20 21 23 24 23 23 23 22 22 22 21 20 21 23 24 25 25 25 25 25 25 25 25 25 26 25 26 26 26 27 27 26 26 26 25 25 23 24 25 25 25 26 26 26 26 27 27 28 27 25 26 27 27 27 26 26 25 23 23 23 21 22 22 21 21 22 24 24 23 24 25 25 26 26 26 26 26 27 27 27
19 20 20 21 21 21 21 20 20 22 23 23 23 23 22 22 22 22 21 20 22 24 24 25 26 25 25 25 25 25 26 26 26 25 26 26 26 27 26 26 26 26 25 25 25 25 25 26 26 27 27 27 27 27 27 28 28 26 26 27 27 27 27 26 25 23 22 22 21 21 22 21 21 21 23 23 22 23 25 26 26 26 26 26 26 27 27 27
20 20 21 21 21 21 20 20 22 23 23 23 23 22 22 22 22 21 20 21 22 24 24 25 25 25 25 26 25 25 26 25 25 25 26 26 27 26 25 25 26 26 25 25 26 26 26 25 26 27 27 28 28 27 26 28 27 27 27 27 26 26 26 25 24 23 21 21 21 22 22 22 21 21 22 23 23 24 25 26 26 26 26 26 27 27 27 27
20 20 21 22 21 21 20 22 24 24 23 23 22 22 22 22 22 21 20 21 22 23 24 25 24 25 25 25 25 25 25 25 25 26 26 26 27 26 25 25 26 25 25 25 25 26 25 25 26 27 27 27 27 26 26 27 27 27 28 26 24 23 23 23 22 22 21 21 22 23 23 22 21 22 24 25 25 25 24 25 26 26 26 26 26 27 27 27
21 21 22 23 22 22 22 24 24 23 23 23 22 22 22 22 21 20 21 22 22 23 24 24 24 24 25 25 25 25 25 25 25 25 25 25 26 26 25 25 25 23 22 23 24 24 25 26 27 27 27 27 28 26 25 26 28 28 27 25 22 21 21 21 21 21 21 21 22 24 23 22 21 23 25 26 26 25 24 25 26 27 26 26 26 27 27 27
22 23 23 24 24 24 24 25 24 23 23 22 22 23 23 21 21 20 21 22 22 23 24 23 24 24 24 25 25 24 24 24 24 24 24 24 26 25 24 24 25 24 22 22 23 22 24 26 26 26 27 28 28 26 24 24 26 27 25 24 22 21 21 21 21 21 21 22 23 24 23 21 22 24 25 26 26 26 25 24 25 27 27 26 26 27 27 26
23 24 24 24 25 25 25 24 24 23 22 22 23 23 22 21 21 21 22 22 22 23 23 23 23 24 24 24 23 24 24 24 24 24 24 25 25 24 24 24 24 25 25 23 22 22 22 23 25 27 27 27 29 28 26 26 26 27 28 27 24 22 21 21 21 21 21 22 22 23 22 21 22 23 25 25 26 27 26 24 25 26 26 26 26 26 26 26
24 24 24 25 25 25 25 24 24 23 22 23 24 23 21 20 21 21 22 23 23 23 23 22 23 24 24 24 23 23 24 24 23 24 25 25 24 23 24 24 24 25 25 23 22 23 21 22 26 27 26 27 29 28 29 28 25 26 29 27 24 24 24 22 22 22 22 21 21 21 22 22 23 24 25 26 25 26 25 24 24 24 24 25 25 25 26 26
24 24 25 25 25 24 24 24 24 23 23 24 24 22 21 21 22 22 23 24 23 23 24 23 24 24 23 23 24 24 24 24 24 24 24 23 23 23 24 24 24 25 25 24 23 23 21 23 27 26 25 28 29 28 29 28 26 25 25 24 25 28 27 22 21 22 22 21 21 21 22 23 24 25 25 25 25 25 25 24 23 23 23 24 25 25 26 26
23 24 24 24 24 24 24 24 24 23 23 24 23 22 22 23 23 23 23 24 23 23 23 23 22 22 22 22 23 24 25 24 24 24 23 22 23 23 23 24 24 24 25 24 24 24 22 23 26 27 27 27 28 28 29 28 28 26 24 25 27 28 27 24 22 21 21 21 21 21 22 22 22 23 24 25 25 25 25 24 23 23 23 24 25 25 25 26
22 23 24 24 24 24 24 24 23 23 24 24 23 22 22 23 23 23 23 23 23 23 23 22 22 22 22 22 22 23 24 24 23 23 23 23 23 23 23 24 24 24 23 23 24 24 23 23 25 27 27 26 27 28 27 27 29 27 26 29 28 24 23 23 22 21 21 21 21 21 21 22 22 22 23 25 25 25 25 25 24 23 23 24 24 25 25 25
22 24 24 24 24 24 24 23 23 24 25 24 23 22 22 23 24 23 23 22 23 24 23 22 22 22 22 22 22 23 23 23 23 23 22 22 23 23 23 23 24 24 23 23 25 25 24 23 23 25 26 26 27 27 25 25 27 28 28 29 28 25 24 23 23 23 22 21 21 21 21 22 23 24 24 25 25 25 25 25 24 24 24 24 25 25 25 25
21 24 25 23 23 24 23 23 24 25 24 22 22 22 22 23 25 24 23 23 23 24 24 23 23 23 22 22 22 23 23 23 23 23 22 22 23 23 24 23 23 24 22 23 24 24 24 23 22 25 26 25 25 26 26 27 27 26 26 25 25 26 25 25 24 23 22 22 21 21 21 22 23 24 25 26 26 25 25 25 25 24 24 24 24 24 24 24
20 24 24 23 23 23 23 24 24 23 23 22 22 22 23 23 25 25 24 23 24 24 24 23 23 23 23 23 23 23 23 23 23 23 23 23 23 23 24 22 22 23 23 24 25 24 24 23 22 23 24 24 25 26 27 28 29 28 27 26 26 26 24 23 22 22 23 22 22 22 22 22 23 23 24 25 25 25 25 25 25 24 24 24 23 23 23 23
22 25 24 23 23 22 23 24 21 20 23 23 22 22 23 24 24 24 24 24 24 24 24 24 23 23 23 23 23 22 23 23 22 23 23 23 23 23 23 22 21 22 24 25 25 24 24 23 22 22 24 25 26 25 24 25 28 29 28 28 29 28 25 23 21 22 22 22 22 22 22 22 23 23 23 24 25 25 25 25 25 24 24 23 23 23 23 23
22 23 23 23 22 22 24 24 22 21 23 23 22 22 23 23 24 24 24 23 24 24 24 24 23 23 23 22 23 23 23 22 22 22 23 23 23 23 23 22 21 22 24 25 24 23 23 23 22 22 24 26 27 25 24 25 27 28 28 28 29 28 27 26 24 24 23 22 22 22 21 22 23 23 23 24 24 24 25 25 24 24 23 23 22 22 23 23
19 20 22 23 23 23 24 24 23 23 23 22 23 24 23 23 23 23 23 23 23 23 24 24 23 23 23 22 22 23 22 22 22 22 22 22 23 24 22 22 22 23 24 24 24 24 23 22 21 22 22 23 24 24 25 25 27 27 26 27 27 27 28 27 25 25 23 22 22 22 22 22 23 22 22 23 23 24 24 24 23 23 23 22 23 22 22 22
19 20 21 22 23 23 23 22 23 23 23 23 24 23 23 23 23 22 23 22 21 22 23 23 22 22 23 22 22 22 22 22 22 22 22 23 24 24 23 22 22 23 23 23 23 23 23 21 21 22 21 21 22 22 22 23 25 26 25 26 26 27 28 26 24 23 22 21 22 22 22 22 22 22 22 23 23 23 22 22 22 22 22 22 22 22 22 22
21 22 22 23 23 22 20 19 20 22 23 23 23 22 22 23 23 22 22 22 22 21 21 22 22 23 23 23 23 23 22 22 22 22 22 23 23 24 23 22 22 23 23 22 22 23 23 22 21 22 22 22 21 22 22 23 23 24 25 25 26 26 27 27 24 22 22 22 22 22 22 21 21 22 22 23 23 22 21 21 22 21 21 21 21 21 21 21
20 21 21 22 23 22 21 19 19 20 21 22 23 22 22 23 23 23 23 23 22 21 21 21 21 22 23 23 23 23 22 22 23 22 22 21 22 23 23 23 23 23 24 23 22 23 24 22 22 22 22 22 22 22 22 22 23 23 24 24 25 25 26 26 24 23 24 23 21 23 23 21 22 23 22 23 23 22 21 21 21 21 21 21 21 20 20 20
19 20 18 19 21 22 22 21 19 19 20 21 22 22 22 22 22 23 23 23 22 22 22 22 21 21 21 21 23 22 21 22 22 22 22 21 22 23 24 24 24 23 23 23 22 23 24 22 22 23 22 22 23 23 23 23 23 23 23 24 24 24 25 25 24 25 25 23 23 23 23 22 23 23 23 23 22 21 21 22 22 21 21 21 21 21 21 20
18 19 17 17 19 20 20 19 19 20 21 21 22 22 22 22 22 21 21 22 22 22 21 22 21 20 20 21 22 22 21 21 21 21 22 21 21 22 23 24 24 24 23 23 22 21 22 23 22 22 22 23 23 23 24 24 24 24 24 24 24 24 24 24 24 24 25 23 24 24 23 23 25 24 23 23 23 22 22 22 22 21 21 21 21 22 21 21
17 18 17 17 19 19 18 17 19 22 22 21 22 22 21 21 22 21 20 21 22 22 21 21 21 20 21 21 22 22 21 21 22 21 21 21 22 22 22 22 23 24 23 23 22 21 22 22 21 22 22 23 24 24 24 24 24 24 24 24 24 24 24 24 23 24 24 23 23 24 23 23 25 25 24 23 23 23 22 22 22 21 21 21 21 22 21 20
15 15 15 17 19 19 18 18 19 22 23 22 22 22 21 21 21 21 21 20 20 22 22 22 21 21 21 22 22 22 21 21 21 21 21 22 22 21 22 22 22 23 24 22 21 21 22 22 22 22 22 22 23 24 24 24 24 24 23 23 23 23 23 23 23 23 23 23 23 23 23 23 24 24 23 23 23 23 22 22 22 22 22 22 21 21 20 20
14 14 14 17 19 18 17 18 19 21 22 22 21 21 21 21 21 21 22 21 20 21 20 21 22 22 22 22 22 22 22 21 21 21 20 21 21 20 21 21 21 22 23 22 21 20 20 21 22 22 22 21 22 23 24 24 23 22 22 22 22 23 23 23 23 23 24 24 23 23 23 24 24 23 23 23 23 23 22 22 22 22 22 22 21 20 20 19
Height
802 801 800 799 798 797 796 795 794 793 792 792 791 791 790 790 789 788 788 787 787 786 785 785 784 783 782 782 781 781 780 780 779 779 776 768 767 771 772 774 775 777 778 781 782 784 787 789 790 791 793 794 795 795 796 796 797 803 810 816 819 817 813 806 804 802 801 807 809 808 805 808 814 812 808 808 812 815 817 818 817 816 816 818 822 826 831 835
801 800 799 798 797 796 795 794 793 792 791 791 790 790 789 789 788 787 787 786 785 785 784 784 783 782 782 781 780 780 779 778 778 775 768 763 766 769 770 773 774 775 777 779 781 782 785 788 789 791 793 795 795 795 797 797 799 805 810 813 814 810 807 802 800 799 798 804 807 806 805 805 810 810 807 813 820 818 821 824 821 822 822 822 824 828 832 834
800 799 798 797 796 795 794 793 792 792 790 790 789 789 788 787 787 786 786 785 784 784 783 783 782 782 781 781 780 779 779 778 776 769 762 761 763 766 769 772 773 774 776 778 780 781 783 786 788 790 793 796 796 796 800 799 800 803 806 811 808 803 803 800 799 798 797 799 804 806 804 806 807 806 807 815 820 819 821 824 823 826 825 824 826 828 832 834
799 798 797 796 795 794 793 792 791 790 790 789 788 787 787 786 786 785 785 784 784 783 782 782 781 781 781 780 780 779 779 778 771 763 761 761 760 764 768 770 772 774 776 778 781 783 784 786 788 789 793 798 796 796 800 799 800 801 803 807 803 799 802 800 798 796 795 797 802 804 805 808 806 804 809 814 820 823 821 818 819 821 822 823 825 828 832 834
799 798 797 796 795 794 793 791 790 789 789 788 787 786 785 785 785 784 784 783 783 782 782 781 781 780 780 780 780 779 779 778 768 760 762 761 761 763 766 769 771 774 776 779 782 784 786 787 788 791 794 798 799 799 800 796 796 801 800 800 799 798 802 800 796 796 795 797 801 804 807 808 806 807 811 812 818 820 816 815 815 816 817 819 822 827 831 834
799 797 796 795 794 793 791 791 789 788 787 786 786 785 784 784 783 783 783 782 782 781 781 781 781 780 780 780 780 779 779 775 764 761 762 761 761 763 765 768 771 774 776 779 782 784 786 787 789 794 796 798 801 800 798 794 794 801 800 798 799 797 800 799 796 796 795 798 803 805 805 804 807 813 812 812 815 813 809 812 815 817 817 818 821 826 830 833
798 797 796 794 793 792 790 789 788 787 786 785 785 784 783 783 782 782 781 781 781 780 780 780 780 780 780 780 780 780 779 771 762 762 761 760 761 763 765 767 771 775 776 778 781 783 785 788 790 793 796 799 800 798 796 794 794 801 802 800 800 797 798 798 796 797 795 799 802 801 804 806 811 815 813 814 814 810 809 811 815 819 820 821 823 826 830 833
798 796 795 794 792 791 790 788 787 786 785 784 784 783 782 782 781 781 780 780 780 780 780 779 780 780 780 780 780 779 777 769 762 762 761 759 761 763 766 768 772 774 775 777 779 781 784 788 790 790 798 798 795 797 795 796 798 801 801 799 799 798 798 797 797 797 797 800 800 801 807 810 810 811 814 816 813 810 810 812 816 820 822 824 825 827 830 833
797 796 794 793 792 790 789 787 786 785 784 783 782 781 781 781 780 780 779 779 779 779 779 779 780 779 780 780 780 778 772 766 762 762 760 760 761 763 766 767 772 774 775 778 778 781 783 787 788 787 794 794 793 795 794 799 800 797 798 798 799 801 799 799 800 799 799 800 799 805 812 812 808 810 817 816 812 811 811 814 818 821 825 826 827 829 831 833
796 795 794 792 791 789 788 786 785 784 783 782 781 780 780 779 779 779 778 778 778 778 778 779 779 779 781 780 780 778 768 764 763 762 761 761 761 764 767 768 771 773 775 778 779 780 781 783 783 782 788 791 793 794 793 798 795 791 796 798 800 802 801 802 803 802 801 801 801 807 814 813 808 812 821 817 811 811 814 818 820 822 826 827 828 829 831 834
795 794 793 791 790 789 787 786 784 783 782 781 780 779 779 778 778 778 778 777 777 777 778 778 779 780 781 780 779 775 766 763 764 762 763 763 763 765 767 768 770 773 775 778 779 780 781 781 781 783 789 791 792 793 793 791 789 791 795 799 804 804 803 803 805 805 803 805 803 805 813 814 810 814 819 816 811 812 816 821 822 824 827 828 829 830 832 834
795 794 792 791 789 788 786 785 784 782 781 780 779 778 778 778 778 777 777 777 777 777 777 778 780 780 781 780 776 769 764 764 764 763 765 765 766 767 768 770 771 773 775 777 779 780 781 782 781 787 791 790 793 796 793 787 789 795 796 803 810 808 809 808 807 805 805 810 804 802 818 822 817 818 816 812 812 812 817 822 824 826 828 829 830 831 832 834
795 793 792 790 789 787 786 784 783 782 781 780 779 778 778 777 777 777 776 777 776 777 777 778 779 780 781 778 769 764 764 765 765 764 766 767 768 769 770 772 773 775 776 777 779 780 782 782 783 786 787 789 795 795 792 789 793 801 800 805 814 816 817 813 809 806 807 811 802 804 827 831 821 818 814 812 813 815 820 823 824 826 828 829 831 832 833 834
794 792 791 789 788 786 785 784 783 781 780 779 778 777 777 777 777 776 776 776 776 778 778 779 780 781 781 773 763 763 764 764 765 765 767 768 768 771 773 774 775 777 778 778 780 780 782 782 783 785 786 789 792 790 795 798 799 805 808 810 816 823 823 815 812 810 811 813 803 809 829 830 821 818 814 812 812 815 822 824 824 826 827 830 831 833 834 834
794 792 790 789 787 785 784 783 782 780 779 778 777 777 777 777 777 776 776 777 777 778 779 780 780 780 780 771 762 763 763 763 765 765 766 768 768 771 773 775 777 778 779 780 780 781 782 783 785 789 789 788 789 796 804 806 805 808 815 821 818 820 824 818 814 812 814 814 806 813 829 828 821 818 814 812 813 815 821 824 824 826 827 830 832 833 834 834
793 791 789 788 786 785 784 782 781 780 779 778 777 777 777 777 777 777 777 777 778 779 780 781 780 781 780 771 763 763 763 763 764 765 766 768 768 770 773 776 777 778 780 780 781 782 783 785 787 790 791 791 793 801 809 813 816 812 814 821 817 817 825 822 817 814 812 814 812 815 826 827 821 817 814 813 814 816 820 824 824 826 828 829 832 833 834 835
792 791 789 787 786 784 783 782 781 779 778 778 777 777 777 777 777 777 778 779 780 780 780 781 781 781 775 764 763 764 762 763 763 764 766 768 769 770 772 776 778 779 779 780 782 782 784 787 790 791 793 796 796 799 811 822 824 816 811 816 814 814 820 823 824 817 811 814 817 816 820 824 820 816 816 815 815 818 821 824 825 826 827 829 831 832 834 835
792 790 788 786 785 784 782 781 780 779 778 778 777 778 778 778 778 779 779 779 780 781 781 781 780 781 774 764 764 764 761 762 763 763 766 768 770 770 772 775 777 779 781 784 784 785 788 789 791 796 797 799 799 799 810 815 812 814 815 815 815 813 814 820 824 820 814 815 818 820 822 823 820 816 817 816 816 820 821 822 824 825 827 829 831 832 833 835
791 789 787 786 784 783 782 781 780 778 778 778 778 778 778 778 778 779 780 781 780 778 777 777 776 776 773 765 762 761 760 761 763 764 766 767 770 772 772 774 777 779 784 788 789 788 789 792 797 802 801 799 800 798 799 800 798 805 810 810 814 816 815 816 818 818 815 817 820 821 823 823 822 820 819 818 817 820 822 822 824 826 827 829 831 832 833 834
791 788 786 785 783 782 781 780 779 778 778 778 778 778 778 779 779 779 779 779 775 771 769 770 770 769 768 764 761 760 760 761 763 764 766 767 769 772 774 776 779 783 785 787 791 788 787 797 802 799 797 796 796 793 792 794 795 799 804 808 812 814 817 815 817 818 814 818 824 819 820 823 822 821 819 818 819 822 824 825 826 827 828 830 831 832 832 833
790 788 786 784 782 781 780 779 778 778 778 777 777 778 777 778 780 778 776 772 767 765 766 765 766 766 763 761 761 760 761 762 763 764 767 767 767 773 778 779 783 788 787 785 789 788 790 801 800 792 793 793 793 792 792 794 796 798 802 809 813 814 819 816 816 819 815 820 826 820 821 823 821 822 821 818 821 822 823 825 826 827 828 829 830 832 832 831
789 787 785 783 781 780 779 778 777 777 777 777 777 777 775 774 775 774 773 772 766 762 765 765 765 765 760 760 760 760 763 765 767 767 766 767 768 774 780 780 783 788 787 786 789 795 799 800 793 789 793 794 794 793 793 795 797 799 800 807 814 815 818 820 818 818 816 821 828 826 827 827 822 821 822 820 820 819 819 821 824 825 828 829 830 831 831 832
788 786 784 782 780 779 777 776 776 776 776 776 776 775 773 772 771 770 773 775 770 763 764 765 765 763 760 759 758 759 763 765 769 770 765 767 770 773 777 781 784 786 787 787 790 799 804 797 787 788 793 794 795 795 794 795 797 799 800 805 812 814 818 825 826 821 817 820 826 828 830 831 827 824 825 823 820 818 818 820 821 822 825 827 827 828 830 831
787 785 783 781 780 778 776 776 775 775 775 775 774 772 771 771 770 770 771 775 774 765 761 761 761 760 760 757 755 759 763 763 766 767 764 766 771 772 775 779 783 786 787 786 788 795 797 791 786 789 794 793 794 796 795 796 798 800 800 800 807 811 812 818 823 822 821 822 822 829 838 837 832 831 829 824 821 821 820 821 823 823 822 824 825 826 828 829
785 784 782 780 779 777 776 776 774 774 773 772 771 770 770 770 768 769 771 778 779 767 759 760 760 759 756 755 756 757 759 762 761 761 761 763 767 772 776 777 780 787 790 788 790 792 791 789 787 791 794 793 794 796 794 794 798 801 799 796 799 805 808 815 820 821 830 834 824 828 844 843 833 832 829 826 826 824 822 822 824 824 823 824 827 827 827 827
784 782 780 779 778 776 776 775 773 773 772 771 770 769 769 769 768 768 773 783 782 769 763 762 761 760 755 757 757 755 763 767 759 757 759 760 762 766 776 778 777 786 790 786 789 791 790 789 788 790 793 794 795 795 793 793 799 802 796 791 795 800 806 816 818 819 832 836 822 823 840 845 837 834 828 825 828 825 822 823 822 823 824 825 826 826 826 827
782 780 779 778 776 776 775 773 773 773 771 770 769 769 769 767 768 767 774 790 789 773 767 763 760 759 756 757 756 759 772 770 760 760 759 760 761 761 774 780 779 784 783 786 795 793 788 791 792 791 792 795 796 795 792 791 797 801 794 790 796 800 806 812 815 819 824 826 825 826 834 842 841 833 826 824 830 829 825 824 822 821 823 823 823 824 825 825
780 779 777 776 775 774 773 772 772 770 769 769 768 768 768 767 768 768 781 803 794 771 766 763 757 755 755 756 756 761 767 764 766 768 757 758 763 762 773 779 778 782 780 786 799 793 786 791 793 791 793 795 792 790 789 788 795 799 792 791 794 798 803 805 811 819 820 826 838 834 830 840 843 831 824 827 833 832 826 823 822 820 821 821 822 822 823 823
778 777 775 774 773 772 771 771 770 768 768 768 767 768 767 766 768 772 788 803 789 767 765 762 756 757 757 758 760 761 761 762 768 767 758 760 762 762 773 775 775 782 782 783 790 789 785 786 785 787 791 790 787 787 786 787 794 794 790 792 795 799 803 805 811 818 824 833 839 834 828 838 846 836 829 833 834 830 824 819 818 818 818 819 820 820 821 822
776 774 773 773 771 770 770 770 768 768 767 766 767 766 765 768 772 785 801 800 784 771 765 761 761 763 762 764 766 764 764 765 765 763 763 765 762 763 770 771 773 781 784 785 785 784 783 782 781 784 785 782 782 786 786 786 789 789 792 797 803 807 808 811 814 818 833 839 829 823 822 830 843 837 827 827 824 821 821 819 817 816 816 817 817 818 819 820
774 772 771 770 770 769 769 768 766 767 766 766 766 764 767 773 778 796 806 791 780 776 767 766 768 765 765 769 770 768 767 769 767 766 769 769 768 770 773 776 778 784 790 791 788 786 785 786 785 780 778 778 782 788 789 786 784 788 794 800 811 820 819 824 827 828 841 841 822 814 817 828 840 831 817 813 811 812 817 817 815 814 815 815 815 815 816 818
771 770 769 768 768 768 767 766 765 765 765 764 765 765 772 782 790 801 799 784 782 781 772 771 771 767 768 769 771 771 771 772 770 770 773 775 775 776 780 783 784 793 803 798 792 791 787 785 783 779 775 776 783 791 795 791 786 790 796 800 817 835 839 843 844 840 838 830 817 812 818 831 832 818 810 808 805 808 810 810 810 809 811 812 813 813 813 815
769 767 767 766 766 766 765 765 764 764 764 763 765 767 774 790 800 799 792 786 784 778 772 773 771 770 771 770 773 774 772 775 773 773 777 777 778 781 783 784 781 789 799 798 796 795 791 786 782 782 779 774 777 790 801 801 793 793 797 800 816 835 850 857 852 844 835 822 813 810 819 831 822 810 808 806 802 801 804 807 806 805 806 809 810 810 811 813
766 765 765 765 765 764 764 764 763 763 763 763 767 771 781 797 800 792 788 785 780 774 773 776 773 772 772 774 778 775 774 779 776 775 778 778 783 786 785 784 783 783 788 795 797 795 799 797 783 779 779 773 775 781 787 793 794 792 788 791 803 814 830 842 840 835 829 822 820 819 825 830 820 811 807 801 799 797 798 804 805 805 806 806 808 809 810 812
765 764 764 764 764 764 763 763 762 762 763 763 769 778 791 800 797 791 787 780 776 775 775 775 773 774 776 777 778 774 774 779 778 778 781 783 788 790 787 785 785 783 786 796 796 793 800 796 775 771 774 770 774 775 773 784 796 793 784 790 799 795 801 817 821 818 817 824 832 828 825 821 811 806 800 796 799 797 798 804 806 808 808 807 810 811 810 811
764 763 764 763 764 763 762 762 762 762 762 765 774 786 793 792 789 788 782 774 775 776 775 776 775 777 781 779 778 776 772 775 780 782 786 789 790 790 789 786 783 783 784 791 793 793 799 790 771 772 774 767 769 770 770 779 790 794 794 797 794 782 787 809 819 816 815 826 833 827 821 817 810 806 799 797 800 799 801 805 806 809 809 809 810 810 810 810
763 763 763 763 763 763 762 762 762 762 762 767 779 789 789 783 779 779 775 772 775 775 776 782 782 783 787 784 782 780 774 775 780 782 788 794 791 789 789 785 783 782 781 785 787 787 792 788 773 772 775 769 765 767 769 770 775 791 798 790 785 787 791 801 818 827 826 829 830 825 822 820 820 818 807 801 803 802 802 804 807 809 810 810 810 809 809 809
763 763 763 763 763 763 762 762 762 762 764 772 783 788 786 781 776 774 773 772 773 773 777 785 785 786 789 787 786 783 778 779 783 785 789 793 791 789 788 786 783 781 780 783 784 783 788 789 777 770 774 772 766 771 780 775 769 778 783 775 782 801 805 804 816 826 829 833 832 828 826 820 816 816 810 805 805 804 803 804 806 809 809 809 809 809 809 809
762 764 766 765 763 763 763 763 762 763 768 779 788 787 784 780 774 771 772 772 772 773 778 784 784 785 787 786 786 785 781 782 785 788 791 794 793 788 786 786 783 780 780 781 782 782 786 792 785 772 771 773 770 775 785 784 777 775 776 775 779 790 796 800 805 805 814 830 833 831 833 820 805 804 804 802 801 802 803 804 805 806 807 807 807 808 809 810
763 767 770 766 763 764 764 763 764 767 775 785 789 786 783 779 772 768 769 770 771 772 777 782 782 783 786 785 785 784 783 785 787 789 791 793 793 788 784 785 784 780 781 781 781 782 785 792 790 777 772 776 777 776 775 777 780 781 783 785 785 786 787 792 799 798 803 820 827 830 829 813 800 802 801 798 798 798 800 802 804 805 805 806 807 808 809 810
765 771 772 765 764 765 764 765 772 777 781 786 787 784 781 777 772 770 768 768 770 770 772 777 779 781 784 784 785 784 784 788 789 790 791 791 792 790 784 784 785 782 781 781 780 782 785 790 790 781 777 777 775 772 768 767 769 773 778 780 781 785 788 797 810 806 799 807 815 820 819 808 802 803 801 798 797 796 797 800 803 804 805 807 808 808 810 811
768 774 772 765 765 765 765 772 781 784 782 782 783 782 779 776 774 773 770 768 769 769 770 773 777 781 783 783 784 785 786 789 791 791 790 790 791 790 784 782 785 783 780 781 781 780 781 787 790 784 777 773 771 771 771 769 765 765 770 772 772 776 780 792 807 806 803 808 810 812 815 810 804 801 799 799 797 795 796 798 801 804 804 807 808 808 809 811
772 774 769 765 766 765 768 778 784 784 782 780 780 780 778 778 777 775 773 773 773 771 772 776 778 780 783 783 784 786 787 791 794 792 791 792 789 786 783 782 783 782 779 780 781 779 781 790 792 785 775 770 768 769 770 769 768 769 771 771 771 773 772 778 787 790 798 807 807 812 817 810 803 801 799 799 798 798 798 798 801 804 805 807 808 808 809 811
776 774 769 766 765 765 772 781 783 783 783 781 780 779 778 779 778 778 778 778 778 777 777 780 780 779 782 783 784 787 789 792 794 792 792 793 788 783 783 782 781 780 778 779 780 779 785 794 793 788 788 787 782 779 776 771 770 774 777 776 775 775 774 778 783 786 795 803 803 806 811 807 803 803 801 801 801 802 802 801 803 805 806 808 808 808 810 812
776 775 772 769 765 767 775 781 782 783 784 783 782 783 782 781 780 780 781 781 781 781 781 781 781 780 782 784 786 788 788 788 792 793 792 792 787 782 782 782 780 779 778 778 777 777 786 796 795 791 795 799 797 793 788 783 779 778 780 780 778 776 774 777 786 794 800 806 803 798 803 809 809 806 805 803 802 804 806 805 805 806 808 808 809 810 811 812
776 777 777 773 768 771 778 782 782 783 784 783 785 788 787 785 782 780 780 782 782 782 783 783 783 781 782 784 787 790 789 787 789 793 794 793 788 784 782 781 780 779 777 777 776 778 786 794 796 794 792 793 795 794 792 789 786 782 781 781 779 779 775 774 784 792 794 802 805 797 801 813 814 809 807 804 803 806 809 808 808 809 809 809 810 811 812 813
779 782 783 781 777 777 781 783 785 785 785 784 786 790 790 788 786 781 780 782 783 783 785 787 786 785 786 787 789 792 794 791 790 793 797 796 791 786 783 781 780 778 776 776 777 779 785 792 795 794 793 792 793 793 792 791 789 786 785 783 781 783 780 776 781 784 784 795 802 798 802 810 809 806 806 804 804 807 809 808 808 809 809 810 811 812 814 815
781 785 787 785 785 785 784 784 786 787 786 785 787 790 791 790 790 788 785 783 783 784 785 789 791 791 792 791 790 794 797 796 795 797 798 797 794 789 784 781 780 778 777 777 777 779 786 793 794 793 793 793 791 789 788 789 790 789 789 786 784 786 784 780 783 783 781 787 791 792 799 802 798 800 802 801 803 806 807 807 806 808 809 810 811 812 813 815
783 786 787 786 786 787 787 788 788 787 786 786 787 789 792 792 792 794 791 787 788 787 788 793 796 794 793 791 789 796 801 799 800 801 798 798 797 794 791 788 782 779 778 780 782 784 788 793 795 795 794 790 788 788 786 786 788 788 789 788 787 788 787 786 789 788 785 788 788 788 796 796 791 793 797 797 799 802 804 805 806 808 810 811 812 812 813 815
786 788 788 787 787 787 789 790 786 783 785 788 788 790 792 793 793 794 793 792 794 792 790 795 798 795 793 790 789 796 800 798 799 800 799 798 798 796 797 795 789 783 781 784 787 786 787 793 798 795 792 791 789 787 787 788 789 787 788 789 788 789 790 790 792 790 789 795 794 791 798 799 790 788 793 795 797 800 803 805 807 808 810 811 812 813 814 816
789 790 790 788 788 788 790 791 788 784 785 786 788 791 793 794 793 793 793 794 795 794 791 794 796 794 792 791 792 795 797 795 796 796 795 796 796 795 794 794 792 789 786 789 792 789 788 794 796 791 792 795 792 789 790 789 786 785 789 794 795 794 793 792 793 792 791 795 798 798 799 796 788 788 793 796 797 800 804 805 807 808 809 810 813 814 816 817
789 790 790 789 789 791 791 792 790 787 786 787 789 790 791 792 791 792 794 795 793 793 794 793 793 793 794 795 795 794 792 793 793 793 793 793 793 794 794 793 793 792 791 792 795 798 797 796 795 794 796 799 796 792 788 787 791 797 799 801 802 799 795 793 793 792 789 789 794 797 793 787 786 790 795 797 799 801 804 804 805 807 808 810 813 815 817 818
Wind_Speed
11 10 10 10 10 11 11 11 11 11 11 11 11 10 10 10 9 9 9 9 9 9 10 10 10 10 9 9 10 10 11 12 12 8 11 15 13 12 10 9 15 18 21 23 21 19 12 9 11 12 8 4 3 4 4 3 2 1 1 0 1 2 2 2 6 6 7 10 10 7 6 11 11 7 7 8 11 11 10 9 9 10 12 16 20 24 24 22
11 11 11 10 11 11 11 11 11 12 12 12 12 11 11 11 10 10 8 8 8 8 9 9 9 9 9 9 9 9 10 12 11 12 17 17 11 11 13 11 17 23 24 25 22 19 14 10 13 12 7 4 3 4 4 3 2 2 1 1 1 1 1 1 2 3 5 11 11 7 7 10 12 10 8 8 10 11 11 10 11 14 15 19 23 24 23 23
11 11 11 11 11 11 11 12 11 12 12 12 12 12 11 11 11 10 9 8 8 8 8 8 8 9 9 9 9 9 9 9 7 9 9 7 11 13 13 15 20 25 26 27 25 20 16 14 15 13 6 4 3 3 4 3 2 2 2 1 0 1 1 2 1 2 6 12 12 9 8 9 10 9 7 9 11 10 11 11 12 15 17 19 21 22 23 21
11 11 11 11 12 12 12 12 12 12 12 12 12 12 11 11 10 10 10 9 8 8 7 7 7 8 8 8 7 7 7 5 2 2 4 4 8 15 15 18 24 26 26 27 25 19 17 17 15 10 6 4 3 3 4 3 2 1 2 2 1 1 3 3 2 4 10 12 11 11 11 10 8 7 8 12 11 7 8 10 12 17 20 21 20 21 22 20
12 12 12 12 12 13 13 13 13 13 13 12 12 12 11 11 10 10 10 9 8 7 7 7 6 7 7 6 5 6 5 2 1 2 2 6 5 18 18 21 27 25 25 25 21 17 17 16 12 8 5 3 4 4 3 4 3 2 2 3 2 2 3 4 4 6 10 11 11 12 11 9 7 7 10 11 7 5 7 7 11 17 20 22 21 21 20 19
12 12 13 13 14 14 13 13 13 13 13 12 12 12 11 11 10 9 9 8 7 7 6 7 6 7 5 3 4 3 3 2 2 5 4 7 5 20 21 25 28 25 25 22 18 16 15 13 11 8 5 3 5 5 1 3 5 3 1 1 2 2 3 5 6 7 9 11 11 9 8 9 10 8 7 5 3 6 8 8 11 15 18 22 23 21 19 17
13 13 14 14 14 14 14 13 13 13 12 12 12 12 11 10 10 9 8 7 7 6 6 6 6 5 2 2 2 1 2 4 6 9 9 8 9 23 23 26 28 26 24 21 18 15 14 13 10 8 6 4 4 6 2 3 6 4 1 2 1 1 4 6 8 8 9 10 9 8 8 8 10 9 5 3 6 9 11 12 14 16 19 21 20 19 17 17
13 14 14 14 15 15 14 14 13 13 12 11 11 11 11 10 9 8 7 7 6 6 5 5 5 3 1 2 0 1 2 5 9 11 10 4 17 26 26 26 26 26 24 20 18 15 14 13 11 8 6 4 3 5 4 3 6 7 3 3 1 2 6 7 8 10 10 9 9 10 9 7 7 9 6 6 9 11 13 15 16 17 18 17 17 16 16 16
14 14 14 14 15 15 15 14 13 13 12 11 11 10 10 9 8 7 6 7 6 5 5 4 3 0 2 2 0 2 2 4 9 8 5 10 24 28 27 26 26 26 22 18 17 16 13 11 12 7 5 6 3 3 5 5 4 6 3 3 3 4 7 8 8 10 10 8 9 12 10 7 7 7 6 7 11 13 15 16 16 17 16 15 14 15 15 14
15 14 14 14 15 15 15 14 13 13 12 11 11 10 9 8 6 6 6 6 6 5 4 3 1 2 3 2 1 1 2 7 9 3 6 18 26 27 27 27 27 25 20 15 16 16 9 9 11 5 2 4 3 3 5 5 1 5 5 4 5 6 7 7 7 8 8 6 8 12 10 9 6 3 4 8 12 15 16 16 16 16 15 14 13 13 14 14
16 15 15 15 15 15 15 14 14 13 12 11 10 10 8 6 5 5 6 6 5 5 4 2 2 3 3 2 2 2 1 6 13 4 13 22 25 27 27 28 26 23 20 12 12 14 7 7 10 3 0 2 2 3 3 5 2 7 7 7 5 2 6 9 9 8 7 4 6 13 11 8 5 1 5 11 13 16 16 16 16 15 13 13 14 12 12 13
17 16 16 15 15 15 15 14 13 12 12 11 9 8 6 5 4 5 6 5 4 2 1 2 4 5 3 1 4 6 5 5 15 3 18 22 22 24 24 28 24 21 22 13 10 11 6 6 10 7 1 1 2 3 0 2 4 7 4 4 5 3 3 5 5 7 6 4 6 11 10 6 4 3 8 13 13 16 16 16 16 14 12 12 12 11 10 12
18 17 16 16 15 15 14 13 12 12 12 10 8 7 5 4 4 4 4 3 1 2 2 3 6 4 2 2 4 6 7 8 10 3 18 17 16 17 19 24 21 18 21 16 14 13 7 5 5 7 1 2 2 3 4 5 6 6 1 2 4 3 2 5 2 6 8 4 3 3 5 6 5 4 11 14 13 16 15 15 14 12 11 11 11 10 10 12
18 17 16 16 16 15 14 13 12 12 11 9 7 5 4 3 2 2 1 1 2 3 3 6 6 4 1 4 4 2 4 5 1 10 18 14 13 14 15 18 14 13 14 14 15 15 9 4 2 3 1 2 2 2 5 5 3 4 2 1 2 2 2 4 3 5 9 3 3 2 2 7 6 6 12 14 15 17 14 14 14 11 11 10 10 10 10 11
19 18 16 16 16 15 15 13 12 11 9 8 7 4 2 1 1 0 2 3 3 5 6 6 4 2 2 6 3 0 0 2 6 12 16 16 15 12 13 14 12 12 9 7 11 13 10 1 2 2 1 1 0 3 5 4 2 3 2 2 2 2 2 1 3 1 5 3 2 1 3 7 7 8 13 13 15 16 14 14 13 12 12 10 10 9 9 10
19 18 17 16 16 15 15 13 11 9 8 7 5 2 2 3 4 4 5 4 4 7 6 3 1 0 2 2 0 1 1 2 5 10 15 17 14 11 15 15 12 12 9 7 5 7 7 3 0 1 1 1 2 5 6 3 2 2 2 2 3 4 3 2 1 2 2 5 3 1 3 6 6 9 13 13 14 15 13 14 14 13 12 10 9 8 8 9
20 18 17 16 16 15 15 13 10 8 7 5 2 3 4 5 6 6 6 5 6 7 5 2 1 1 3 3 1 1 1 1 4 10 17 15 11 15 18 11 8 9 6 5 4 4 6 4 2 1 1 1 2 6 6 4 4 4 3 2 3 5 4 4 1 4 5 7 6 3 4 6 6 11 14 13 14 13 13 14 14 12 11 10 9 8 8 8
21 20 18 17 16 15 14 13 9 7 6 4 3 4 4 6 7 6 7 7 6 5 3 2 1 1 2 3 2 1 2 0 5 11 17 12 10 16 16 8 8 10 7 4 2 3 5 3 1 1 2 2 4 7 5 3 6 7 5 2 3 5 5 5 2 3 7 7 6 5 5 6 9 13 14 14 13 12 12 13 13 12 12 11 9 8 9 9
22 20 18 17 16 15 14 12 9 5 4 3 4 5 5 6 6 5 6 5 3 2 1 1 2 1 1 3 4 5 4 1 6 9 13 12 13 14 12 11 10 9 8 6 3 3 4 3 2 3 5 4 6 9 5 0 4 9 7 4 4 5 4 4 4 3 7 7 7 6 6 8 11 13 14 14 13 11 11 11 11 11 10 10 9 9 8 9
23 21 19 17 15 15 14 12 8 2 2 3 5 5 3 3 2 2 2 3 4 4 4 3 4 3 4 4 5 6 2 4 4 7 12 15 16 13 9 9 8 5 7 8 6 3 4 5 5 6 4 4 7 10 5 1 3 8 7 5 5 4 2 3 5 4 5 3 6 6 8 10 11 12 13 14 14 12 12 12 11 11 10 10 10 9 9 9
23 22 19 17 15 15 13 12 7 1 3 2 5 3 0 0 2 3 1 4 6 7 8 5 4 6 7 4 4 4 2 4 5 7 14 16 14 10 5 7 9 6 4 7 8 3 3 6 7 6 3 3 5 8 3 1 6 8 6 5 4 3 2 2 5 6 3 1 3 5 8 10 11 12 12 14 15 14 14 13 12 12 11 9 10 10 9 8
24 22 20 17 15 14 13 12 6 3 4 3 5 2 1 2 4 5 2 4 4 5 6 4 2 7 8 7 7 4 1 3 7 7 12 13 8 4 4 6 9 7 5 7 8 5 5 7 8 4 2 2 1 4 4 2 5 7 4 4 4 3 4 4 5 7 4 1 2 3 6 8 9 11 11 12 14 14 14 13 12 13 12 10 10 10 9 9
25 23 20 16 14 14 13 10 2 5 4 4 5 4 2 3 6 6 3 3 4 1 3 4 3 5 5 4 6 6 3 2 5 6 11 11 3 2 7 7 7 8 8 10 9 7 5 5 6 3 4 5 3 4 5 2 3 4 3 3 3 6 5 2 4 7 5 1 3 4 4 5 7 9 9 9 10 10 11 12 10 11 12 12 12 11 11 11
25 23 19 16 13 12 13 8 2 3 2 5 6 5 2 7 5 7 4 2 3 2 2 4 3 4 3 1 6 8 3 2 4 7 11 9 4 3 5 5 9 9 6 8 8 8 4 1 2 4 5 5 4 4 5 4 3 3 4 5 4 8 7 4 7 8 5 2 4 7 4 4 7 9 10 7 6 8 10 11 11 10 11 11 11 11 11 11
25 23 19 15 12 10 11 6 2 2 5 5 6 2 4 10 3 8 4 1 1 2 1 3 2 3 2 1 6 4 2 3 2 5 11 10 6 4 3 3 5 6 5 7 7 6 4 2 4 5 4 4 4 5 5 5 3 2 5 6 6 10 9 9 11 9 4 3 6 8 4 4 8 10 12 9 7 10 11 11 13 12 11 10 10 11 11 10
26 23 18 15 11 8 8 3 1 5 6 4 3 2 7 10 0 8 2 1 1 2 1 1 1 2 1 2 4 3 3 4 1 4 11 11 6 3 4 2 1 4 5 6 4 2 2 3 4 4 5 6 5 5 4 4 4 1 3 5 8 10 10 13 13 7 3 2 6 9 4 2 7 10 12 11 12 13 11 12 14 12 10 10 10 10 10 10
26 22 17 14 11 7 4 2 3 5 4 2 2 5 9 7 3 7 1 0 3 1 2 1 0 1 1 2 2 3 4 4 3 4 7 8 4 0 3 3 2 3 3 3 3 2 3 4 3 3 4 5 5 5 4 6 5 0 1 6 11 11 11 13 10 4 1 3 5 7 2 0 4 7 10 12 12 13 12 12 12 11 11 12 12 12 11 11
26 22 16 12 11 9 6 4 4 4 3 2 5 8 9 3 5 3 2 1 2 1 1 1 1 0 0 2 2 0 2 3 4 3 2 5 3 1 3 6 5 6 3 4 6 2 3 6 6 5 4 4 5 3 5 8 4 2 1 7 10 10 10 11 8 4 2 2 4 6 4 1 0 3 8 10 11 13 15 15 13 12 13 13 13 13 13 12
25 21 15 11 11 9 6 6 6 4 4 4 7 9 6 2 5 1 1 2 2 1 0 1 1 0 0 2 2 1 2 1 1 2 1 4 2 1 3 4 5 7 3 2 5 2 1 4 5 7 5 5 4 2 6 9 3 3 7 9 8 6 6 6 5 4 3 1 4 7 7 3 0 2 7 9 12 14 14 14 13 11 12 13 13 14 14 12
24 19 14 10 9 7 5 7 6 4 5 7 9 6 1 4 2 1 1 2 2 1 1 2 2 1 1 3 2 1 1 1 2 2 2 2 2 4 2 2 3 5 3 2 3 2 1 1 2 4 5 5 3 2 4 7 9 11 12 11 9 7 5 3 1 1 2 2 2 9 11 5 2 4 8 8 8 11 11 10 12 11 11 12 12 13 13 11
22 16 12 10 8 6 3 4 5 4 6 8 6 1 3 2 0 1 3 2 2 1 1 2 2 1 1 3 2 1 2 2 1 3 4 2 2 4 2 3 3 3 3 1 3 1 1 1 2 3 4 3 3 4 2 7 14 11 8 9 7 5 3 2 2 0 3 2 1 6 11 7 4 4 7 8 6 10 12 11 14 13 12 12 11 13 13 11
18 13 11 9 8 8 6 5 7 8 8 6 2 1 2 1 1 2 1 2 1 2 1 1 2 1 1 1 2 2 1 2 2 2 4 2 3 3 1 1 2 3 3 3 3 1 3 4 3 3 3 5 5 5 4 8 12 8 7 9 5 3 2 2 1 2 4 2 2 5 11 7 4 2 5 9 9 12 12 11 14 15 14 12 12 12 11 10
15 10 8 8 8 9 8 8 9 9 6 2 1 1 1 1 3 1 1 1 1 1 0 1 2 1 1 1 2 2 1 2 1 1 2 1 2 3 1 2 1 1 1 2 2 3 4 3 4 5 3 6 8 5 6 7 7 8 9 7 5 4 3 2 2 2 3 2 1 6 9 4 3 3 4 8 10 12 12 10 12 13 13 12 12 12 10 10
11 6 5 5 6 7 7 8 8 6 3 1 2 0 1 3 2 1 2 2 1 1 1 1 1 1 2 1 1 1 1 3 2 2 2 1 1 2 2 2 0 0 1 2 2 3 4 2 6 9 4 6 10 8 8 9 7 8 7 6 6 5 3 3 4 3 1 2 4 7 6 3 2 2 1 5 7 8 11 10 7 6 7 9 9 9 10 10
8 3 2 3 4 6 6 5 5 4 2 1 1 1 3 2 1 2 1 2 2 1 1 1 0 1 2 2 2 1 0 2 2 3 4 2 2 1 1 1 1 1 1 2 1 1 3 2 4 4 2 7 11 8 9 10 8 6 4 5 6 5 4 1 1 1 2 4 4 4 3 1 1 1 4 4 5 8 10 11 8 6 7 8 8 9 9 10
4 1 2 3 6 7 5 3 3 3 1 1 2 3 2 1 1 1 1 2 2 2 1 1 1 2 2 1 2 2 2 2 1 2 3 2 1 2 0 1 0 1 1 2 2 1 2 1 2 2 2 8 10 11 12 10 7 5 5 6 3 1 3 1 1 2 1 3 3 3 3 1 1 3 2 2 5 9 12 12 10 9 9 9 9 9 9 8
4 3 3 7 10 8 2 1 2 2 0 1 2 3 0 1 1 2 1 2 1 1 0 1 2 2 1 1 2 3 3 2 1 1 2 1 1 2 3 2 1 1 1 2 3 1 2 2 1 4 6 5 4 10 11 7 5 6 7 7 5 2 0 0 1 3 2 4 2 3 5 3 1 1 1 4 7 10 13 14 13 11 10 9 8 8 8 7
5 3 3 9 13 7 1 2 1 1 1 1 3 2 0 1 1 2 1 2 1 1 1 1 1 1 0 1 1 3 2 1 1 1 2 1 1 1 3 2 2 1 1 2 3 1 2 4 1 3 4 3 5 8 7 4 2 1 5 8 5 2 3 2 2 3 4 3 1 2 4 4 4 3 3 7 9 10 13 14 15 15 12 10 10 9 8 7
4 2 1 8 12 4 3 2 2 1 2 2 2 1 1 2 2 2 1 0 1 1 2 1 0 0 1 0 1 2 2 1 2 1 1 1 1 1 2 1 2 2 1 2 2 1 1 2 1 2 2 5 7 7 7 7 3 1 4 8 3 2 3 3 2 2 4 3 2 2 2 4 4 2 5 9 9 11 14 13 14 15 13 10 10 9 8 7
3 1 1 7 11 2 3 1 2 2 2 2 1 0 1 3 3 2 0 0 0 1 1 0 0 1 2 1 1 2 3 3 2 1 1 1 1 1 1 1 2 3 1 2 2 1 1 2 1 2 2 4 6 5 7 10 9 5 6 8 4 1 1 2 1 0 1 2 2 2 2 2 1 1 3 7 9 11 13 13 13 13 11 9 7 7 7 6
1 1 1 7 8 0 2 2 2 2 1 1 0 1 2 3 4 5 3 1 1 1 2 2 2 2 1 1 2 2 2 3 2 2 2 1 0 0 1 1 2 2 0 2 1 0 1 1 2 0 2 5 3 1 4 7 9 9 8 8 7 5 3 5 4 1 0 1 1 1 2 1 3 2 1 5 8 9 11 12 12 11 10 8 6 5 5 5
1 1 0 6 6 2 0 2 1 1 0 1 1 2 2 3 3 5 5 3 3 2 2 3 3 2 2 1 2 2 2 3 2 2 2 3 1 1 1 1 2 2 1 1 0 1 0 1 2 2 2 2 0 1 2 3 2 4 4 6 8 7 6 7 6 3 2 1 1 0 1 1 2 1 2 5 7 7 9 11 11 11 10 8 7 6 5 4
1 0 1 6 5 3 0 2 0 1 1 1 1 1 1 2 2 3 5 5 4 2 3 3 2 2 3 2 1 2 2 2 3 2 2 2 1 1 3 4 2 2 1 0 0 1 1 0 1 2 0 1 1 2 2 1 2 3 1 2 6 5 4 3 2 4 5 4 2 2 2 1 2 2 3 6 7 6 7 8 9 10 9 7 8 7 6 6
1 1 2 6 4 3 1 2 0 1 1 1 2 2 1 2 3 4 5 5 4 2 2 3 2 2 3 2 2 3 2 1 3 3 1 1 1 0 3 5 3 0 1 1 1 1 1 1 1 1 3 3 3 4 4 2 2 2 1 1 2 3 5 4 3 3 5 3 2 4 3 2 3 4 5 7 9 8 7 7 7 8 8 8 8 8 7 7
1 1 2 5 6 2 1 1 0 0 1 1 2 3 2 1 2 2 3 4 4 2 1 2 1 2 2 1 3 4 4 2 2 1 0 1 0 1 2 5 4 2 2 2 2 1 0 1 1 2 4 5 4 4 3 2 1 0 1 2 2 4 7 5 3 3 5 2 2 3 2 3 4 6 8 9 10 9 7 7 7 7 7 8 7 7 6 6
1 1 1 3 4 4 2 1 2 1 0 0 1 2 2 1 1 1 1 3 4 3 2 2 2 1 2 3 3 5 6 5 3 2 1 1 1 1 3 4 4 5 5 3 2 1 1 2 2 2 2 1 0 1 1 1 1 1 1 3 2 2 2 3 3 4 4 4 4 3 2 5 8 10 10 11 10 10 9 8 8 7 7 7 6 6 6 5
1 1 1 1 1 2 1 1 3 1 1 0 1 1 2 1 1 1 2 2 3 3 2 3 3 2 1 2 3 4 5 4 4 3 1 2 2 2 3 4 3 8 8 4 3 1 2 3 3 4 5 4 2 2 1 0 1 2 2 2 2 1 1 4 5 3 6 6 4 3 6 8 11 13 13 12 11 10 9 9 9 8 8 8 7 7 7 7
1 1 0 1 1 1 1 2 3 2 1 1 1 1 1 2 2 2 2 1 2 4 2 2 5 6 2 1 2 2 3 3 4 2 1 1 2 2 3 2 3 7 6 3 3 2 2 2 3 2 3 3 4 4 3 3 3 4 5 4 2 1 2 3 2 3 6 4 2 7 12 10 10 14 15 13 11 10 10 10 9 9 9 9 9 9 8 8
2 1 1 1 1 1 0 2 2 1 2 1 1 1 1 2 3 2 2 2 3 5 3 2 5 6 3 1 2 2 2 2 3 2 1 2 2 2 3 2 2 5 5 3 4 2 1 1 1 0 1 4 6 6 6 5 5 8 9 9 7 3 2 2 2 3 3 2 1 9 13 8 7 13 15 13 12 11 10 10 9 10 10 10 10 10 9 8
1 1 1 1 1 0 1 1 1 1 2 1 1 2 1 1 3 2 2 3 2 3 3 4 3 4 5 5 5 4 2 1 3 2 1 1 1 1 1 1 2 5 6 4 2 2 1 1 1 1 1 4 8 7 6 4 4 8 11 11 10 6 3 3 3 3 3 3 3 8 9 5 6 12 14 13 12 12 11 11 10 10 11 11 10 10 10 9
2 0 1 0 0 2 1 1 1 1 1 1 1 2 2 1 2 3 2 3 2 2 2 4 4 2 4 7 8 6 1 1 1 2 2 2 1 1 1 1 1 4 5 4 2 3 3 1 1 0 2 3 7 7 5 2 1 5 11 13 12 6 1 1 1 0 1 5 9 8 5 4 8 13 13 12 13 13 12 12 11 10 11 12 11 10 10 10
3 0 1 0 0 2 1 0 1 1 2 1 1 1 2 2 2 2 3 2 2 3 2 2 2 2 4 6 7 5 2 1 1 2 1 1 2 2 2 2 2 2 4 3 1 2 2 0 0 1 1 2 5 6 4 1 3 1 8 11 10 6 3 2 1 1 3 7 9 4 1 4 10 14 15 14 14 13 12 11 11 11 12 12 11 11 10 10
Wind_Direction
342 338 336 333 330 328 327 327 325 323 321 320 320 319 317 314 311 310 309 308 309 308 311 314 316 318 316 318 317 315 319 313 309 292 248 260 260 233 226 194 177 164 158 162 148 135 136 132 141 151 152 149 168 178 190 199 150 160 232 165 207 199 187 177 175 162 136 141 146 162 153 129 128 118 119 114 98 103 101 89 92 95 103 112 121 132 140 147
339 337 334 330 328 326 326 324 322 321 320 319 318 318 317 313 312 310 308 309 308 307 310 310 313 317 315 320 318 320 326 317 303 276 262 268 263 223 210 188 175 169 162 161 153 143 144 146 149 155 158 151 166 186 192 190 166 209 238 198 221 204 145 81 148 137 135 144 139 145 144 131 131 131 137 129 116 119 111 106 112 109 111 117 125 136 144 148
339 337 334 331 329 327 325 321 320 319 318 318 316 316 314 314 313 310 310 308 307 308 307 307 313 315 317 321 320 329 329 319 293 266 289 281 230 214 196 179 176 174 168 168 166 159 150 146 152 155 157 158 170 193 197 188 185 224 229 227 173 155 153 113 136 127 134 141 135 135 132 123 132 138 142 136 133 138 134 135 135 129 131 132 135 143 148 150
339 337 334 331 329 328 325 321 319 317 316 315 313 314 312 313 313 311 311 308 309 308 306 311 314 314 320 321 320 338 330 299 273 263 13 23 187 187 184 172 173 176 171 172 172 165 147 139 151 156 156 164 165 201 210 192 191 222 222 256 339 185 176 136 151 136 136 140 132 132 128 121 130 135 137 140 140 152 157 155 151 145 143 141 142 148 152 153
338 337 336 334 331 328 324 322 319 317 315 313 311 312 311 312 312 310 308 307 308 305 308 309 311 318 320 326 334 350 332 237 74 14 26 356 162 167 172 168 173 176 168 168 165 154 144 141 152 155 163 167 168 202 224 198 205 246 238 271 291 202 169 133 145 137 135 133 126 131 130 125 128 129 147 152 150 158 161 158 152 149 147 145 145 151 155 155
338 340 340 339 335 330 327 324 321 318 316 314 312 311 310 310 309 308 306 305 307 302 308 308 309 317 316 345 3 7 316 228 352 340 323 324 184 163 166 168 173 171 162 158 147 144 147 152 159 158 174 172 185 208 221 191 207 247 227 297 300 224 164 139 143 137 135 131 126 130 123 126 132 132 150 148 107 129 134 134 142 146 146 143 144 150 156 158
340 342 342 340 338 335 331 326 322 320 320 318 314 311 309 309 307 305 304 302 302 300 303 308 307 309 341 48 45 41 286 266 317 326 320 309 176 161 166 168 168 165 159 150 145 153 154 163 172 159 169 168 199 219 229 199 203 246 269 117 284 221 153 146 142 140 132 124 120 121 118 126 135 138 143 100 102 124 124 127 136 142 144 141 144 150 154 157
342 343 342 341 340 338 334 329 325 322 323 321 314 310 309 307 304 300 301 298 295 297 295 300 307 300 81 101 84 331 243 271 312 328 325 260 160 158 163 160 163 165 160 155 152 159 158 166 171 154 179 188 193 210 206 202 203 234 251 118 161 133 142 142 133 134 120 115 119 113 107 103 123 136 131 119 127 128 126 130 136 143 146 144 146 150 152 156
344 344 343 342 340 338 335 331 328 325 324 320 312 310 306 302 298 293 291 291 287 290 291 290 301 280 132 118 341 290 254 311 321 326 315 173 157 159 162 156 162 165 158 155 153 160 165 171 169 159 200 198 185 207 194 208 218 213 203 111 129 122 135 139 130 133 120 120 123 106 98 97 117 132 117 126 136 130 130 135 140 147 149 148 148 150 153 157
347 345 344 343 341 339 337 334 331 327 325 322 315 308 305 304 298 291 284 284 283 282 284 279 293 130 155 181 199 251 334 2 357 335 182 165 158 159 162 157 159 162 154 150 157 166 175 175 166 159 213 181 198 248 201 220 252 156 158 104 112 120 136 138 125 130 116 111 118 111 110 111 127 168 133 141 142 133 134 140 145 151 152 152 151 152 156 158
350 348 347 345 343 342 341 338 333 331 331 327 320 311 311 313 298 289 284 279 278 275 274 249 185 159 180 212 214 240 302 19 8 358 169 161 161 162 164 162 158 157 152 149 163 166 171 172 164 159 194 152 231 267 216 229 165 139 143 110 95 89 144 135 123 134 119 94 112 113 108 111 132 181 141 148 148 140 139 145 152 154 155 157 154 154 158 158
353 351 350 347 346 344 344 341 336 336 336 330 323 318 317 316 296 289 291 287 280 273 269 207 173 154 168 238 232 237 238 329 349 345 161 156 160 164 167 167 163 160 155 154 170 170 161 159 176 190 181 32 294 309 323 174 129 130 136 117 89 45 120 108 115 145 126 125 143 119 111 129 143 115 139 151 151 145 143 148 156 157 158 160 158 157 161 160
355 353 352 349 347 345 345 344 340 340 338 335 329 321 319 313 298 298 294 289 322 79 93 165 160 148 171 247 236 243 257 291 331 150 158 156 156 157 164 167 171 171 163 164 170 174 160 110 178 195 181 350 354 29 73 81 104 117 60 117 104 89 84 15 20 140 121 139 188 138 136 157 149 124 148 155 152 148 146 152 157 157 159 163 163 162 164 164
356 354 351 349 347 346 346 346 344 342 338 336 330 322 324 312 294 310 294 119 87 104 130 143 142 129 192 262 268 290 273 264 241 156 163 163 144 138 152 159 165 170 171 176 175 179 176 80 35 189 189 324 5 82 113 86 102 131 104 132 133 162 136 359 310 140 127 160 280 307 178 165 156 144 156 161 157 153 151 156 160 157 159 163 169 169 165 168
358 353 349 347 346 345 347 349 346 341 337 332 330 331 339 348 351 102 111 93 93 125 133 128 126 117 270 276 274 64 233 197 178 173 177 172 147 130 147 147 140 144 144 161 179 191 195 148 16 200 202 292 254 153 140 110 124 146 134 161 176 172 132 304 277 156 134 172 248 251 168 162 161 157 162 165 162 158 154 159 162 160 162 165 171 172 167 169
358 352 348 345 344 344 346 350 348 340 338 333 333 17 92 74 76 89 85 86 115 132 136 128 88 278 262 295 44 159 199 156 169 178 182 180 167 144 143 138 130 140 132 114 145 180 188 193 139 246 295 250 203 160 145 133 157 201 206 170 167 162 156 168 199 300 215 156 162 210 159 156 161 164 166 167 167 163 156 160 165 162 164 168 171 175 172 169
357 352 347 343 341 343 345 352 351 342 346 346 8 93 99 86 88 83 83 103 125 137 152 151 22 306 255 286 303 181 203 141 157 171 176 183 184 153 139 127 120 139 141 115 105 132 157 181 181 171 241 244 224 170 164 178 185 201 199 162 172 167 168 155 124 278 223 164 162 171 155 153 149 160 168 168 168 166 162 163 166 166 166 170 175 179 178 175
357 352 346 341 339 341 344 354 355 347 2 20 96 108 95 93 96 93 106 120 122 144 167 172 260 251 225 274 306 321 313 121 137 161 169 171 169 153 139 128 129 130 134 136 127 144 158 179 198 199 202 194 200 191 186 186 185 185 181 174 169 173 186 172 144 229 200 168 161 159 154 148 143 158 169 171 170 170 170 167 167 169 168 171 178 183 184 183
356 351 346 339 336 338 342 353 356 354 25 65 120 122 109 104 108 109 115 124 143 215 261 191 221 298 279 278 299 309 309 134 126 143 156 154 150 140 126 126 132 136 148 155 153 164 167 163 174 210 216 191 186 201 207 93 184 180 175 175 164 170 191 164 127 187 204 167 152 163 159 151 153 163 170 173 176 174 172 169 169 170 171 175 181 186 189 190
355 351 346 338 334 335 337 347 352 1 76 102 139 135 115 103 106 112 127 187 215 254 280 215 191 270 286 281 300 316 320 142 122 138 152 151 140 122 111 124 128 143 162 157 148 161 186 179 195 214 200 169 187 204 211 13 187 174 162 164 167 167 165 136 126 171 230 180 147 162 156 156 161 165 171 175 180 182 179 175 173 173 175 179 184 188 190 197
355 351 345 339 333 331 333 342 345 153 135 141 166 157 50 127 334 331 285 242 224 226 245 232 199 251 274 281 290 328 26 112 85 134 153 150 143 129 128 145 142 157 167 138 124 128 198 197 213 221 179 165 201 199 185 123 172 168 160 161 158 155 142 108 125 158 225 352 119 145 153 163 164 164 171 175 182 190 188 182 178 178 178 181 187 191 193 199
354 350 344 340 333 330 334 340 338 166 155 168 186 216 253 224 284 285 263 285 261 215 228 243 254 262 270 269 256 264 282 99 91 133 159 157 161 153 166 173 155 151 151 139 129 141 193 214 222 216 145 162 191 193 198 179 169 170 167 165 152 141 130 92 113 157 178 82 114 142 159 165 160 163 169 178 189 194 193 189 185 181 179 185 189 191 197 199
352 349 343 341 336 331 335 343 356 166 174 192 206 223 249 299 287 241 196 300 288 209 190 210 229 245 257 263 223 191 179 136 116 156 175 171 171 156 164 170 152 141 150 160 159 167 183 227 228 174 147 174 151 172 198 192 180 181 179 187 161 158 166 126 138 163 164 165 167 151 156 161 156 162 170 186 194 191 192 192 190 187 183 187 191 192 197 197
350 347 342 341 340 334 339 351 126 165 241 240 236 230 288 338 307 209 191 302 286 288 214 204 215 218 251 279 170 170 159 137 148 165 179 173 135 152 165 151 149 145 143 150 156 178 177 35 185 142 151 183 167 163 185 195 195 179 196 213 176 171 180 146 142 149 142 185 164 141 153 186 174 175 178 187 192 184 187 189 193 198 194 190 192 196 198 196
348 346 340 339 342 338 341 345 175 330 327 267 246 241 337 344 319 188 196 318 251 289 223 185 217 204 238 124 156 183 146 134 159 153 172 173 144 149 151 143 169 150 129 132 147 189 191 116 147 143 147 176 187 192 191 204 212 183 209 220 192 176 160 130 141 147 148 209 176 161 189 198 180 187 186 181 187 190 187 191 196 198 198 193 194 200 201 198
345 344 339 335 338 339 341 338 225 331 324 262 239 279 332 344 95 168 194 332 112 350 344 164 193 172 173 142 158 227 164 137 15 139 166 174 153 146 149 148 207 142 138 132 141 205 159 147 166 154 162 170 200 221 189 196 222 218 211 199 177 170 149 142 155 162 164 187 171 179 210 185 176 194 193 183 189 193 189 194 199 195 193 195 196 201 201 199
342 343 338 330 330 331 326 291 292 319 310 255 258 290 324 341 150 161 234 38 112 12 313 286 74 128 156 147 168 225 162 124 93 131 170 178 161 57 157 157 141 140 142 136 167 204 139 150 157 145 168 174 204 222 180 188 212 301 9 177 168 166 159 153 160 171 122 98 143 171 194 36 184 191 188 186 190 198 199 199 199 193 191 197 200 200 199 201
340 340 334 326 321 315 297 278 281 274 251 280 291 301 319 322 156 172 289 103 89 329 291 325 340 186 153 119 134 250 100 113 134 138 181 172 164 349 151 172 169 139 136 185 187 162 142 174 171 162 187 204 211 209 168 184 207 357 124 167 162 166 165 159 164 162 106 120 170 173 177 187 227 164 173 184 196 204 207 206 200 192 192 197 200 199 200 202
339 336 330 321 312 307 293 273 272 256 243 282 308 311 310 172 148 211 269 92 26 322 194 341 335 305 31 112 111 24 60 69 115 111 134 151 146 17 141 168 155 131 106 236 202 152 150 200 177 174 202 224 215 159 171 185 175 96 121 119 116 129 136 149 175 159 114 207 210 182 188 207 163 170 175 188 204 208 207 208 203 194 193 196 197 199 198 196
338 333 324 314 306 306 298 279 274 263 265 298 317 318 169 145 153 251 83 57 351 297 288 306 321 327 208 147 131 20 71 60 52 101 123 129 76 42 82 114 108 129 97 8 229 192 61 87 152 191 215 230 210 131 172 168 136 126 121 108 99 96 89 88 130 129 154 233 230 182 188 210 219 190 191 196 201 201 201 206 203 195 192 194 195 197 194 190
336 330 314 304 297 289 283 288 286 293 302 310 322 343 138 139 294 75 65 28 299 307 346 320 324 9 148 158 151 49 76 61 50 144 143 143 117 81 106 141 110 133 130 142 225 251 338 173 171 212 215 201 130 95 108 150 143 138 129 127 117 104 108 96 70 337 208 220 335 175 175 192 228 199 199 206 187 186 197 203 200 196 193 194 195 195 192 188
335 323 302 290 283 265 255 283 298 308 314 313 357 93 176 213 37 58 17 336 318 329 345 334 330 17 107 113 72 43 95 78 40 134 132 153 168 134 121 166 147 166 178 199 197 198 236 208 189 224 217 188 163 116 123 162 162 159 151 148 141 136 155 162 168 237 234 227 25 168 167 183 235 183 185 207 197 190 197 202 201 198 194 192 192 192 189 184
332 313 290 281 276 271 278 293 296 303 313 313 85 87 174 91 53 22 277 308 9 338 305 17 355 20 94 111 72 21 39 70 21 65 77 57 164 147 80 46 147 170 146 196 200 200 206 185 187 207 202 191 189 163 151 168 180 176 164 162 165 159 163 182 194 247 254 230 113 160 170 198 229 147 168 211 212 198 188 193 204 200 192 187 186 188 185 181
332 304 285 281 284 295 302 298 286 286 304 95 120 158 76 65 36 278 265 279 289 314 351 355 317 47 67 78 4 299 72 55 29 60 74 85 131 151 128 75 95 353 77 190 212 213 209 199 190 190 173 176 187 185 164 156 176 184 172 177 179 172 177 188 202 222 208 138 118 146 171 228 207 138 241 238 230 207 178 171 184 183 173 171 173 181 183 184
335 303 297 299 324 333 319 297 269 254 259 97 87 57 60 55 299 265 275 275 271 301 11 13 209 93 73 42 5 327 102 47 38 51 57 80 93 87 157 56 22 137 166 208 197 197 243 262 192 174 142 175 178 173 159 157 176 185 177 192 192 186 182 139 195 209 109 114 135 160 187 287 260 277 291 259 226 200 168 151 148 145 151 162 170 177 182 185
353 61 45 17 1 347 325 306 247 217 230 312 55 60 52 355 273 228 262 299 314 337 338 41 52 67 78 42 32 26 21 48 70 58 57 77 72 41 334 287 288 184 220 240 209 178 240 252 138 113 179 196 178 160 167 178 170 155 189 198 168 140 171 146 103 110 140 180 165 191 222 274 255 251 265 219 196 184 167 155 153 153 155 162 169 172 177 181
17 93 69 20 359 342 326 343 236 225 39 54 76 68 341 278 223 211 281 318 323 13 59 103 33 24 77 76 32 5 10 63 66 53 84 75 28 31 332 293 201 210 289 267 241 214 250 255 152 165 197 208 171 157 170 187 153 155 196 176 113 59 6 268 191 146 203 220 160 201 232 235 221 230 178 173 178 178 174 167 161 158 157 162 165 163 164 169
6 88 67 10 354 340 155 119 274 280 56 59 65 77 253 311 245 226 285 324 233 96 88 101 25 336 194 105 66 352 334 128 87 76 103 47 36 56 330 323 181 253 336 239 223 155 251 261 202 179 185 132 136 164 172 199 216 188 178 158 145 202 194 176 208 188 197 217 169 189 238 241 221 210 179 179 178 178 178 173 171 167 164 166 166 158 154 154
6 92 73 355 350 342 156 114 357 2 67 53 49 78 290 295 275 245 250 292 210 100 71 73 355 69 72 77 108 21 360 105 117 88 103 32 69 124 344 343 219 303 20 191 208 122 254 260 170 130 112 119 152 182 184 185 209 7 151 171 189 265 198 175 197 213 200 200 188 175 219 230 219 191 180 183 179 178 178 178 179 176 169 165 162 158 154 150
21 69 155 344 350 23 155 62 15 31 63 61 17 14 335 296 293 313 312 165 307 14 64 59 268 81 84 77 97 54 33 59 90 83 72 45 118 142 317 273 276 321 20 195 225 185 177 251 220 108 116 161 170 194 198 180 176 186 184 185 182 146 189 174 126 305 227 185 176 193 223 210 134 80 187 185 179 180 182 182 182 179 173 161 151 151 149 146
22 41 140 341 345 127 145 23 39 41 56 91 267 266 314 319 326 341 343 49 50 32 58 86 91 72 94 97 62 48 49 55 55 69 77 62 64 188 72 144 257 299 267 189 217 200 171 219 255 247 165 183 164 163 226 197 181 190 196 190 184 170 165 183 182 157 310 196 152 201 248 141 104 93 208 186 182 184 183 184 183 180 176 165 149 142 142 149
45 56 77 344 337 225 109 28 78 51 25 41 6 265 299 339 346 343 346 12 46 54 56 62 70 58 51 56 47 44 60 55 31 42 84 67 40 284 9 18 241 256 256 201 188 347 260 163 245 270 222 198 157 55 259 254 177 179 205 191 185 183 187 202 200 161 145 137 93 157 277 56 104 124 182 181 181 180 179 182 183 178 172 168 162 153 151 163
50 14 306 357 352 219 266 34 133 41 25 322 343 254 291 346 356 353 359 10 16 24 48 43 26 43 44 31 53 55 42 46 37 35 88 85 62 275 314 325 259 209 220 268 149 149 177 158 243 251 239 64 76 114 111 34 162 183 219 180 186 197 198 207 190 159 179 179 145 199 235 139 119 132 156 159 156 163 173 176 178 173 163 160 163 161 162 173
9 269 261 357 8 206 215 31 14 11 8 331 12 39 11 17 23 18 20 20 7 4 45 46 20 31 36 26 72 63 8 48 61 32 68 116 64 307 313 326 314 205 49 341 292 187 196 316 308 181 152 135 136 143 140 137 175 188 148 143 192 141 119 113 92 148 198 183 144 223 232 124 122 148 160 159 155 160 166 165 167 166 159 160 161 158 161 169
332 186 238 351 21 81 115 45 31 45 18 359 36 28 7 49 41 13 28 35 20 356 30 60 20 6 27 51 85 66 25 37 77 26 6 133 334 299 318 330 338 1 5 334 302 287 98 32 318 215 175 167 164 155 150 152 182 345 102 138 187 148 140 136 123 175 205 161 140 233 240 112 140 165 173 175 170 161 153 154 157 149 146 150 149 148 151 159
335 133 262 338 29 55 77 62 22 45 138 92 82 32 10 50 26 342 53 52 30 20 37 40 343 324 50 54 76 64 32 30 79 89 49 2 318 312 316 315 339 360 356 10 21 329 147 85 10 355 64 84 130 49 18 313 288 303 120 137 171 181 152 135 154 189 177 146 175 224 139 148 173 179 180 183 177 161 151 152 151 142 139 140 136 133 130 137
22 116 21 330 30 45 85 83 31 24 211 168 107 33 5 353 332 359 45 54 35 25 48 52 19 14 47 40 73 69 26 24 59 62 29 335 301 291 298 286 332 353 349 2 19 339 139 72 13 23 55 47 351 323 310 301 2 356 11 129 153 181 193 187 195 174 138 155 204 182 155 174 183 182 185 185 174 159 154 156 151 144 143 140 136 132 131 134
29 134 61 316 274 49 64 12 11 29 96 97 108 53 17 29 43 39 23 45 36 10 25 64 23 14 353 309 94 71 7 36 57 25 341 9 334 319 329 307 346 358 354 8 12 4 117 67 16 28 66 55 23 17 51 95 81 41 30 41 60 4 259 220 208 154 151 192 243 163 171 189 182 177 183 179 166 157 153 155 149 142 142 141 144 146 144 140
28 98 106 326 297 182 303 333 344 78 89 80 79 65 55 65 78 72 344 8 40 9 17 60 15 7 15 26 103 78 10 49 71 29 344 15 2 4 9 350 346 359 6 29 29 31 127 65 45 112 72 41 35 41 61 80 83 66 49 37 34 23 354 29 80 123 113 3 356 159 172 185 171 172 176 169 161 154 149 150 146 141 141 142 149 156 152 142
21 72 354 350 45 66 308 336 336 117 84 48 99 86 65 56 88 105 4 13 46 8 29 87 55 20 42 57 81 87 39 24 68 43 330 312 14 28 12 322 309 348 7 26 18 358 345 182 164 181 144 36 21 28 51 66 82 71 52 30 23 28 45 64 96 128 83 54 101 145 160 166 162 168 169 163 160 156 154 157 152 146 145 144 149 153 146 138
8 171 330 325 68 353 336 11 29 116 107 69 140 140 138 125 110 108 68 25 40 45 67 111 107 40 37 54 61 62 37 245 6 349 273 242 14 357 2 35 277 320 360 18 358 351 360 147 162 208 146 52 5 2 25 38 164 65 36 13 0 357 2 63 71 219 169 132 130 140 169 179 166 168 167 162 164 163 162 163 160 153 150 149 149 144 133 130
1 157 15 278 226 356 350 64 42 148 153 101 132 152 139 142 156 118 95 61 25 48 65 161 132 50 39 48 42 23 343 269 342 348 269 174 75 51 52 72 61 4 356 4 17 3 356 39 73 305 163 66 354 345 10 359 215 75 20 352 332 326 317 301 294 247 179 151 142 156 223 146 155 169 171 168 169 169 167 167 165 160 154 149 147 139 127 124